#timestamp,LO_Frequency,Hit,StdDev 
1710417615.9,286046994.0,N
1710417635.7,286046996.0,N
1710417655.6,286046993.7,N
1710417675.4,286046995.0,N
1710417695.2,286046996.0,N
1710417715.1,286046998.6,N
1710417716.0,286046998.6,N
1710417735.8,286047000.7,N
1710417755.7,286046997.0,N
1710417775.5,286046994.9,N
1710417795.3,286046996.2,N
1710417815.2,286046994.5,N
1710417835.9,286046994.7,N
1710417855.7,286046997.7,N
1710417875.6,286046995.1,N
1710417895.4,286046992.6,N
1710417915.3,286046989.3,Y
1710417935.1,286046995.0,P
1710417936.0,286046995.0,P
1710417955.8,286046995.2,P
1710417975.7,286046994.0,Y
1710417995.5,286046999.2,P
1710418015.3,286046995.4,N
1710418035.2,286046996.4,N
1710418055.0,286046996.8,N
1710418055.9,286046996.8,N
1710418075.8,286046996.8,N
1710418095.6,286046996.5,N
1710418115.4,286046997.8,N
1710418135.3,286046995.6,Y
1710418155.1,286047000.3,P
1710418175.9,286047000.4,N
1710418195.7,286046999.9,N
1710418215.5,286047000.5,N
1710418235.4,286047007.2,Y
1710418255.2,286047007.3,P
1710418275.0,286047009.0,N
1710418276.0,286047011.9,N
1710418295.8,286047008.7,N
1710418315.7,286047010.3,N
1710418335.5,286047008.2,N
1710418355.3,286047010.2,N
1710418375.2,286047010.4,N
1710418395.0,286047016.5,Y
1710418395.9,286047016.5,P
1710418415.8,286047004.6,N
1710418435.6,286047003.4,N
1710418455.5,286047001.3,N
1710418475.3,286046998.5,N
1710418495.1,286047001.2,N
1710418515.9,286046997.9,N
1710418535.7,286046997.6,N
1710418555.6,286046996.0,N
1710418575.4,286046994.2,N
1710418595.2,286046987.0,N
1710418615.1,286046984.2,N
1710418616.0,286046984.2,N
1710418635.8,286046989.6,N
1710418655.7,286046985.3,N
1710418675.5,286046984.7,N
1710418695.3,286046983.7,N
1710418715.2,286046986.6,N
1710418735.0,286046982.2,N
1710418735.9,286046982.2,N
1710418755.8,286046984.8,N
1710418775.6,286046983.6,N
1710418795.4,286046981.4,N
1710418815.3,286046982.9,N
1710418835.1,286046982.9,N
1710418855.8,286046982.1,N
1710418875.7,286046981.2,N
1710418895.5,286046979.1,N
1710418915.4,286046979.5,N
1710418935.2,286046980.3,N
1710418955.0,286046979.8,N
1710418955.9,286046979.8,N
1710418975.8,286046977.4,Y
1710418995.6,286046993.0,P
1710419015.5,286046992.8,N
1710419035.3,286046994.5,N
1710419055.1,286046994.3,N
1710419075.9,286046990.5,Y
1710419095.7,286047000.3,P
1710419115.5,286047004.2,N
1710419135.4,286047004.0,N
1710419155.2,286047002.1,N
1710419175.1,286046998.8,N
1710419176.0,286046998.8,N
1710419195.8,286046998.9,N
1710419215.6,286046996.8,N
1710419235.5,286046998.6,N
1710419255.3,286047001.5,N
1710419275.2,286046998.9,N
1710419295.0,286046997.4,N
1710419295.9,286046997.4,N
1710419315.7,286046996.9,N
1710419335.6,286046997.3,N
1710419355.4,286046999.6,N
1710419375.3,286046997.7,N
1710419395.1,286046998.6,N
1710419396.0,286046998.6,N
1710419415.8,286046997.9,N
1710419435.7,286046995.0,N
1710419455.5,286047002.8,N
1710419475.4,286047000.5,N
1710419495.2,286047001.3,N
1710419515.0,286047002.0,N
1710419515.9,286047002.0,N
1710419535.8,286046999.9,N
1710419555.6,286046996.5,N
1710419575.5,286046999.0,N
1710419595.3,286046998.6,N
1710419615.2,286046998.2,N
1710419635.9,286046997.1,N
1710419655.7,286046998.0,N
1710419675.6,286046995.5,N
1710419695.4,286046995.8,N
1710419715.3,286046988.5,Y
1710419735.1,286046988.6,P
1710419736.0,286046988.6,N
1710419755.8,286046987.6,N
1710419775.7,286046988.1,N
1710419795.5,286046987.1,Y
1710419815.4,286047000.0,P
1710419835.2,286047001.6,N
1710419855.0,286046999.1,N
1710419855.9,286046999.1,N
1710419875.8,286046995.4,N
1710419895.6,286046995.8,N
1710419915.4,286046996.3,N
1710419935.3,286046993.6,N
1710419955.1,286046993.8,N
1710419975.9,286046995.1,N
1710419995.7,286046995.4,N
1710420015.5,286046993.4,N
1710420035.4,286046991.7,N
1710420055.2,286046993.0,N
1710420075.0,286046994.3,N
1710420075.9,286046994.3,N
1710420095.8,286046992.5,N
1710420115.6,286046991.4,N
1710420135.5,286046988.1,Y
1710420155.3,286046992.8,P
1710420175.1,286046991.4,P
1710420195.9,286046989.4,P
1710420215.7,286046987.4,Y
1710420235.6,286046996.0,P
1710420255.4,286046992.5,P
1710420275.2,286046990.4,P
1710420295.1,286046987.4,Y
1710420296.0,286046987.4,P
1710420315.8,286046992.0,N
1710420335.6,286046993.0,N
1710420355.5,286046990.8,Y
1710420375.3,286046996.9,P
1710420395.2,286046996.9,N
1710420415.9,286046996.6,N
1710420435.7,286047000.0,N
1710420455.6,286047000.4,N
1710420475.4,286047001.7,N
1710420495.2,286047000.2,N
1710420515.1,286046999.3,N
1710420516.0,286046999.3,N
1710420535.8,286046999.1,N
1710420555.7,286046999.8,N
1710420575.5,286047001.6,N
1710420595.3,286047001.5,N
1710420615.2,286047000.7,N
1710420635.0,286046996.7,N
1710420635.9,286046996.7,N
1710420655.7,286046995.1,N
1710420675.6,286046997.3,N
1710420695.4,286046997.8,N
1710420715.3,286046993.7,N
1710420735.1,286046991.8,Y
1710420736.0,286046991.8,P
1710420755.8,286046994.4,N
1710420775.7,286046993.9,N
1710420795.5,286046992.7,Y
1710420815.4,286046994.9,P
1710420835.2,286046997.3,P
1710420855.0,286046997.0,N
1710420855.9,286046997.0,N
1710420875.8,286046999.1,N
1710420895.6,286046996.4,N
1710420915.4,286046991.9,Y
1710420935.3,286046995.8,P
1710420955.1,286046994.3,P
1710420975.9,286046992.9,P
1710420995.7,286046990.4,Y
1710421015.5,286046995.5,P
1710421035.4,286046994.9,P
1710421055.2,286046995.3,P
1710421075.1,286046997.6,Y
1710421076.0,286046997.6,P
1710421095.8,286047002.3,N
1710421115.6,286047000.2,N
1710421135.5,286046998.7,N
1710421155.3,286046996.6,N
1710421175.1,286047002.7,N
1710421195.9,286047004.1,N
